Location: Fort Worth, Tx
(32.7431°N, 97.3695°W)
Time: 09:45:36
(UTC-04:00)

A-11 Canister half - Pass Details

Date: 16 August 2024
Orbit: 1524 x 1684 km, 47.3° (Epoch: 13 September)

Event Time Altitude Azimuth Distance (km) Brightness Sun altitude
Rises 23:15:56 0° 228° (SW) 4,834 11.8 -24.1°
Reaches altitude 10° 23:19:01 10° 228° (SW) 3,869 11.2 -24.6°
Maximum altitude 23:29:00 87° 141° (SE) 1,675 9.0 -26.3°
Drops below altitude 10° 23:39:13 10° 53° (NE) 3,950 11.0 -28.0°
Sets 23:42:24 0° 53° (NE) 4,939 11.5 -28.5°
